Location: Maccacari
(45.1333°N, 11.1333°E)
Time: 22:41:48
(UTC+00:00)

Cosmos 1048 Rocket - Pass Details

Date: 18 September 2020
Orbit: 742 x 792 km, 74.0° (Epoch: 25 October)

Event Time Altitude Azimuth Distance (km) Brightness Sun altitude
Rises 19:24:50 0° 337° (NNW) 3,258 8.0 -22.0°
Reaches altitude 10° 19:27:12 10° 337° (NNW) 2,335 7.2 -22.4°
Maximum altitude 19:32:31 80° 251° (WSW) 800 4.0 -23.2°
Enters shadow 19:34:11 45° 172° (S) 1,057 4.4 -23.5°
